DELTA 1 DEB *

Satellite information

Favourite Embed

Satellite Type and Status

DEBRISIN ORBIT

Key statistics

Satellite DELTA 1 DEB * at a glance.

Uptime

18872

Days in orbit

Revolutions

≈ 13.7

Per day

Orbit

LEO

Low Earth Orbit

Inclination

65.7

Latest

Satellite identification and parameters

Extended collection of information and parameters for DELTA 1 DEB *.

Object identification

Identified? True

Debris? True

Object name: DELTA 1 DEB *

International designator: 1973-086GB

Object number (NORAD): 9703

Object ID (CCSDS): 9703

Country: UNITED STATES OF AMERICA (US)

Current information (Y/N): Y

RCS size: SMALL

Orbital parameters

Period: 105.293 minutes

Inclination: 65.7221 deg

SMA: 7386.275 km

Apoapsis: 1096.82 km

Periapsis: 919.461 km

RAAN: 67.5445 deg

Eccentricy: 0.012006

Argument of periapsis: 36.1938 deg

Mean anomaly: 51.8193 deg

Mean motion: 13.67617111 rev/day

Mean motion (dot): 0.00000071 rev/day2

B* drag term: 0.00017005 1/REarth

Two-line elements (TLE)

Creation date: July 8, 2025, 2:27 a.m.

Reference frame: TEME

Reference center: EARTH

Epoch: July 7, 2025, 9:47 p.m. UTC

TLE line 0: 0 DELTA 1 DEB *

TLE line 1: 1 09703U 73086GB 25188.90773971 .00000071 00000-0 17005-3 0 9994

TLE line 2: 2 09703 65.7221 67.5445 0120060 36.1938 51.8193 13.67617111536920

Live tracking on map

Real-time ground track for satellite DELTA 1 DEB *.

In-orbit conjunctions

A list of the most updated potential collisions computed for object DELTA 1 DEB *.

Target Orbit TCA Probability of collision Miss distance Type
CZ-6A DEB LEO 2025-06-26 04:50:59 0.0001686536 200.0 (m) DEBRIS
CZ-6A DEB LEO 2024-12-26 08:13:18 0.0009220241 184.0 (m) DEBRIS

Associated space launch

Meteorological satellite using radiometric imaging

DELTA 1 DEB * was lifted into orbit during the mission ‘Delta 0300 | NOAA 3’, on board a Delta 0300 space rocket.

The launch took place on Nov. 6, 1973, 5:02 p.m. from Space Launch Complex 2W.

For more information about the launch, click the button.

Launch to space Delta 0300 | NOAA 3
Delta 0300 | NOAA 3

Agency: N/A

Status: Launch Successful

Launch date: Nov. 6, 1973, 5:02 p.m. UTC

Rocket: Delta 0300

Launch pad: Space Launch Complex 2W

Location: Vandenberg SFB, CA, USA

...

Latest news about this satellite

There are no fresh news available about this satellite. Check back as we update our databases every day.


Newsletter sign-up

Weekly statistics, charts and insights to help you stay on top of the space industry.